Meteo Giornale » Osservazioni meteo Italia » Venezia-Tessera

ore: 10:50 - Osservazioni Meteo Venezia-Tessera
Lat. 45° 30' N Lon. 12° 20' E Alt. 2 metri s.l.m.

coperto_pioggia Europe/Rome

11 °C

Pioggia Debole

Temp. 24 Ore

9 °C

11 °C

Nord-Est

29.6 Km/h

Dew point 10 °C

Umidità 93 %

Visibilità  10 Km

Il sole sorge alle ore 07:04

Il sole tramonta alle ore 16:45

Data e Ora Cielo e Fenomeni T °C DP °C Um. % Pres. hPa Vis. km Vento km/h
Oggi h: 10:50 coperto_pioggia Pioggia Debole 11 10 93 1001 10 NE 29.6
Oggi h: 10:20 coperto_pioggia Pioggia Debole 11 10 93 1002 10 NE 27.8
Oggi h: 09:50 coperto_pioggia Pioggia Debole 11 10 93 1002 7 NE 27.8
Oggi h: 09:20 coperto_pioggia Pioggia Debole 11 10 93 1002 7 NE 27.8
Oggi h: 08:50 coperto_pioggia Pioggia Debole 11 10 93 1003 7 NE 27.8
Oggi h: 08:20 coperto_pioggia Pioggia 11 10 93 1003 5 NE 22.2
Oggi h: 07:50 coperto_pioggia Pioggia Debole 10 10 100 1003 6 NE 20.3
Oggi h: 07:20 coperto_pioggia Pioggia Debole 10 10 100 1003 10 NE 22.2
Oggi h: 06:50 coperto_pioggia Pioggia 11 9 87 1004 7 NE 24
Oggi h: 06:20 coperto_pioggia Pioggia 11 10 93 1004 7 NE 20.3
Oggi h: 05:50 coperto_pioggia Pioggia 11 10 93 1004 6 NE 20.3
Oggi h: 05:20 molto_nuvoloso Molto Nuvoloso 11 10 93 1004 10 NE 22.2
Oggi h: 04:50 molto_nuvoloso Molto Nuvoloso 11 10 93 1004 10 NE 22.2
Oggi h: 04:20 coperto_pioggia Pioggia Debole 11 10 93 1004 10 N/NE 18.5
Oggi h: 03:50 coperto_pioggia Pioggia Debole 11 10 93 1005 10 N/NE 13
Oggi h: 03:20 coperto_pioggia Pioggia Debole 10 10 100 1006 10 NE 9.3
Oggi h: 02:50 nuvoloso Nuvoloso 10 10 100 1006 10 NE 14.8
Oggi h: 02:20 nuvoloso Nuvoloso 10 9 93 1007 10 N/NE 16.7
Oggi h: 01:50 nuvoloso Nuvoloso 10 9 93 1007 10 N/NE 14.8
Oggi h: 01:20 nuvoloso Nuvoloso 10 9 93 1007 10 N/NE 14.8
Oggi h: 00:50 nuvoloso Nuvoloso 10 9 93 1008 10 NE 16.7
Oggi h: 00:20 coperto_pioggia Pioggia Debole 10 9 93 1008 10 NE 14.8
Ieri h: 23:50 coperto_pioggia Pioggia Debole 10 9 93 1008 10 N/NE 13
Ieri h: 23:20 coperto_pioggia Pioggia Debole 10 9 93 1009 10 NE 20.3
Ieri h: 22:50 coperto_pioggia Pioggia 10 9 93 1009 10 NE 18.5
Ieri h: 22:20 molto_nuvoloso Molto Nuvoloso 10 9 93 1009 10 N/NE 16.7
Ieri h: 21:50 coperto_pioggia Pioggia 10 9 93 1010 10 NE 18.5
Ieri h: 21:20 coperto_pioggia Pioggia Debole 10 8 87 1010 10 NE 18.5
Ieri h: 20:20 molto_nuvoloso Molto Nuvoloso 10 8 87 1010 10 NE 16.7
Ieri h: 19:50 molto_nuvoloso Molto Nuvoloso 10 8 87 1011 10 N/NE 14.8
Ieri h: 19:20 molto_nuvoloso Molto Nuvoloso 10 8 87 1011 10 N/NE 18.5
Ieri h: 18:50 nuvoloso Nuvoloso 10 8 87 1011 10 N/NE 16.7
Ieri h: 18:20 nuvoloso Nuvoloso 10 8 87 1011 10 N/NE 18.5
Ieri h: 17:50 nuvoloso Nuvoloso 10 8 87 1011 10 N/NE 20.3
Ieri h: 17:20 nuvoloso Nuvoloso 10 8 87 1011 10 N/NE 18.5
Ieri h: 16:50 molto_nuvoloso Molto Nuvoloso 10 8 87 1011 10 NE 18.5
Ieri h: 16:20 molto_nuvoloso Molto Nuvoloso 10 8 87 1011 10 NE 18.5
Ieri h: 15:50 molto_nuvoloso Molto Nuvoloso 10 8 87 1012 10 NE 20.3
Ieri h: 15:20 molto_nuvoloso Molto Nuvoloso 10 8 87 1012 10 N/NE 18.5
Ieri h: 14:50 molto_nuvoloso Molto Nuvoloso 10 8 87 1012 9 N/NE 16.7
Ieri h: 14:20 coperto_pioggia Pioggia Debole 9 8 93 1012 5 N 14.8
Ieri h: 13:50 coperto_pioggia Pioggia Debole 9 8 93 1013 6 N/NE 14.8
Ieri h: 13:20 coperto_pioggia Pioggia Debole 9 8 93 1013 9 NE 14.8
Ieri h: 12:50 coperto_pioggia Pioggia Debole 10 8 87 1013 10 NE 18.5
Ieri h: 12:20 coperto_pioggia Pioggia Debole 9 7 87 1014 10 NE 14.8
Ieri h: 11:50 coperto_pioggia Pioggia Debole 10 7 81 1014 10 NE 14.8
Ieri h: 11:20 coperto_pioggia Pioggia Debole 9 7 87 1014 10 NE 14.8
Ieri h: 10:50 molto_nuvoloso Molto Nuvoloso 9 6 81 1015 10 N/NE 16.7